Meteo Giornale » Osservazioni meteo Italia » Venezia-Tessera

ore: 06:20 - Osservazioni Meteo Venezia-Tessera
Lat. 45° 30' N Lon. 12° 20' E Alt. 2 metri s.l.m.

foschia Europe/Rome

22 °C

Foschia

Temp. 24 Ore

20 °C

29 °C

Nord

3.7 Km/h

Dew point 22 °C

Umidità 100 %

Visibilità  3 Km

Il sole sorge alle ore 06:13

Il sole tramonta alle ore 20:15

Data e Ora Cielo e Fenomeni T °C DP °C Um. % Pres. hPa Vis. km Vento km/h
Oggi h: 06:20 foschia Foschia 22 22 100 1012 3 N 3.7
Oggi h: 05:50 nebbia Banco di Nebbia 22 22 100 1011 2 NE 11.1
Oggi h: 05:20 nebbia Banco di Nebbia 22 22 100 1011 1 NE 11.1
Oggi h: 04:50 sereno Sereno 23 22 94 1011 7 N/NE 11.1
Oggi h: 04:20 sereno Sereno 23 22 94 1011 10 NE 11.1
Oggi h: 03:50 sereno Sereno 23 22 94 1011 10 NE 13
Oggi h: 03:20 sereno Sereno 24 23 94 1011 10 E/NE 9.3
Oggi h: 02:50 sereno Sereno 23 22 94 1012 10 E/NE 9.3
Oggi h: 02:20 sereno Sereno 23 21 88 1012 10 N 5.5
Oggi h: 01:50 nuvoloso Nuvoloso 23 21 88 1012 10 N 5.5
Oggi h: 01:20 sereno Sereno 23 21 88 1012 10 N 9.3
Oggi h: 00:50 sereno Sereno 23 21 88 1012 10 N/NO 9.3
Oggi h: 00:20 sereno Sereno 23 22 94 1012 10 N/NO 11.1
Ieri h: 23:50 sereno Sereno 23 22 94 1012 10 N 11.1
Ieri h: 23:20 nuvoloso Nuvoloso 23 22 94 1013 10 N 5.5
Ieri h: 22:50 coperto_pioggia Pioggia Debole 23 21 88 1013 10 N 7.4
Ieri h: 22:20 coperto_pioggia Pioggia Debole 23 21 88 1013 10 N 5.5
Ieri h: 21:50 coperto_pioggia Pioggia Debole 23 21 88 1013 10 O 13
Ieri h: 21:20 coperto_pioggia Pioggia Debole 26 23 83 1014 10 O/SO 25.9
Ieri h: 20:50 poco_nuvoloso Poco Nuvoloso 26 23 83 1012 10 S/SO 9.3
Ieri h: 20:20 sereno Sereno 26 23 83 1011 10 S 7.4
Ieri h: 19:50 sereno Sereno 26 23 83 1011 10 S/SE 11.1
Ieri h: 19:20 sereno Sereno 26 23 83 1011 10 S/SE 13
Ieri h: 18:50 sereno Sereno 27 23 78 1011 10 S/SE 11.1
Ieri h: 18:20 sereno Sereno 27 22 74 1011 10 SE 11.1
Ieri h: 17:50 sereno Sereno 28 22 69 1011 10 E 11.1
Ieri h: 17:20 sereno Sereno 27 22 74 1012 10 S/SE 11.1
Ieri h: 16:50 sereno Sereno 28 20 61 1013 10 S 9.3
Ieri h: 16:20 sereno Sereno 28 22 69 1013 10 S/SE 14.8
Ieri h: 15:50 sereno Sereno 28 21 65 1012 10 S/SE 14.8
Ieri h: 15:20 sereno Sereno 28 22 69 1013 10 S/SE 14.8
Ieri h: 14:50 sereno Sereno 29 21 62 1013 10 S/SE 13
Ieri h: 14:20 poco_nuvoloso Poco Nuvoloso 27 22 74 1013 10 S/SE 13
Ieri h: 13:50 poco_nuvoloso Poco Nuvoloso 28 22 69 1013 10 S/SE 13
Ieri h: 13:20 poco_nuvoloso Poco Nuvoloso 28 22 69 1013 10 S/SE 14.8
Ieri h: 12:50 poco_nuvoloso Poco Nuvoloso 28 22 69 1013 10 S/SE 13
Ieri h: 12:20 poco_nuvoloso Poco Nuvoloso 28 22 69 1013 10 S/SE 11.1
Ieri h: 11:50 poco_nuvoloso Poco Nuvoloso 27 22 74 1013 10 E/SE 11.1
Ieri h: 11:20 poco_nuvoloso Poco Nuvoloso 27 22 74 1013 10 SE 11.1
Ieri h: 10:50 poco_nuvoloso Poco Nuvoloso 27 22 74 1013 10 E/SE 9.3
Ieri h: 10:20 poco_nuvoloso Poco Nuvoloso 26 22 78 1013 10 E/SE 7.4
Ieri h: 09:50 poco_nuvoloso Poco Nuvoloso 26 21 73 1013 10 N 5.5
Ieri h: 09:20 nuvoloso Nuvoloso 25 20 73 1013 10 N/NE 7.4
Ieri h: 08:50 nuvoloso Nuvoloso 23 20 83 1013 10 N/NE 9.3
Ieri h: 08:20 poco_nuvoloso Poco Nuvoloso 22 20 88 1012 10 NE 13
Ieri h: 07:50 sereno Sereno 22 19 83 1012 10 N/NE 11.1
Ieri h: 07:20 poco_nuvoloso Poco Nuvoloso 21 19 88 1012 10 N/NE 11.1
Ieri h: 06:50 poco_nuvoloso Poco Nuvoloso 20 19 93 1012 9 N/NE 11.1